TimeCST,TemperatureF,Dew PointF,Humidity,Sea Level PressureIn,VisibilityMPH,Wind Direction,Wind SpeedMPH,Gust SpeedMPH,PrecipitationIn,Events,Conditions,WindDirDegrees,DateUTC
12:53 AM,46.9,37.0,68,30.14,10.0,SSE,11.5,-,N/A,,Clear,160,2013-11-04 06:53:00
1:53 AM,46.0,37.0,71,30.14,10.0,SSE,9.2,-,N/A,,Clear,160,2013-11-04 07:53:00
2:53 AM,46.9,37.0,68,30.14,10.0,South,9.2,-,N/A,,Clear,180,2013-11-04 08:53:00
3:53 AM,46.9,37.0,68,30.11,10.0,SSE,11.5,-,N/A,,Clear,160,2013-11-04 09:53:00
4:53 AM,48.0,37.0,66,30.12,10.0,South,12.7,-,N/A,,Clear,170,2013-11-04 10:53:00
5:53 AM,48.0,37.0,66,30.12,10.0,South,12.7,-,N/A,,Clear,170,2013-11-04 11:53:00
6:53 AM,48.0,37.9,68,30.14,10.0,South,10.4,-,N/A,,Partly Cloudy,170,2013-11-04 12:53:00
7:53 AM,48.0,39.0,71,30.16,10.0,South,6.9,-,N/A,,Clear,170,2013-11-04 13:53:00
8:53 AM,48.9,39.9,71,30.17,10.0,South,8.1,-,N/A,,Clear,190,2013-11-04 14:53:00
9:53 AM,51.1,41.0,68,30.17,10.0,SSE,8.1,-,N/A,,Clear,160,2013-11-04 15:53:00
10:53 AM,52.0,42.1,69,30.19,10.0,South,10.4,-,N/A,,Clear,180,2013-11-04 16:53:00
11:53 AM,54.0,42.1,64,30.17,10.0,South,12.7,-,N/A,,Mostly Cloudy,180,2013-11-04 17:53:00
12:53 PM,55.0,43.0,64,30.16,10.0,South,10.4,-,N/A,,Mostly Cloudy,170,2013-11-04 18:53:00
1:53 PM,55.0,43.0,64,30.16,10.0,SSW,12.7,21.9,N/A,,Overcast,200,2013-11-04 19:53:00
2:53 PM,55.0,43.0,64,30.16,10.0,SSW,15.0,20.7,N/A,,Overcast,200,2013-11-04 20:53:00
3:53 PM,54.0,44.1,69,30.16,10.0,South,10.4,-,N/A,,Scattered Clouds,170,2013-11-04 21:53:00
4:53 PM,53.1,45.0,74,30.17,10.0,SSE,10.4,-,N/A,,Overcast,160,2013-11-04 22:53:00
5:53 PM,52.0,46.9,83,30.19,10.0,South,9.2,-,0.00,,Overcast,170,2013-11-04 23:53:00
6:07 PM,52.0,46.9,83,30.21,10.0,South,8.1,-,N/A,,Overcast,180,2013-11-05 00:07:00
6:19 PM,51.1,48.0,89,30.20,10.0,SSE,9.2,-,N/A,,Overcast,160,2013-11-05 00:19:00
6:43 PM,51.1,48.0,89,30.21,10.0,South,8.1,-,0.00,Rain,Light Rain,180,2013-11-05 00:43:00
6:51 PM,51.8,48.2,88,30.21,9.0,South,9.2,-,0.00,Rain,Light Rain,180,2013-11-05 00:51:00
6:53 PM,51.1,48.0,89,30.22,9.0,South,8.1,-,0.00,Rain,Light Rain,180,2013-11-05 00:53:00
7:43 PM,51.1,48.9,92,30.21,5.0,South,6.9,-,0.02,Rain,Light Rain,170,2013-11-05 01:43:00
7:53 PM,51.1,48.9,92,30.22,6.0,South,5.8,-,0.02,Rain,Light Rain,180,2013-11-05 01:53:00
8:23 PM,51.1,48.9,92,30.23,7.0,South,6.9,-,0.02,Rain,Light Rain,180,2013-11-05 02:23:00
8:53 PM,51.1,48.9,92,30.24,7.0,South,5.8,-,0.02,Rain,Light Rain,170,2013-11-05 02:53:00
9:53 PM,51.1,48.9,92,30.24,7.0,SSE,5.8,-,0.01,,Overcast,160,2013-11-05 03:53:00
10:53 PM,51.1,48.9,92,30.24,8.0,South,8.1,-,0.00,Rain,Light Rain,180,2013-11-05 04:53:00
11:53 PM,51.1,48.9,92,30.23,7.0,SSE,6.9,-,0.00,,Overcast,150,2013-11-05 05:53:00